#timestamp,LO_Frequency,Hit,StdDev 
1504036815.3,286047001.0,N,1.8
1504036835.2,286046998.1,N,1.9
1504036855.0,286047000.3,N,1.7
1504036855.9,286047000.3,N,1.5
1504036875.8,286046999.7,N,1.4
1504036895.6,286047000.2,N,1.3
1504036915.4,286046999.9,N,1.3
1504036935.3,286047001.9,N,1.3
1504036955.1,286047002.3,N,1.4
1504036956.0,286047002.3,N,1.4
1504036975.8,286047002.5,N,1.5
1504036995.7,286047002.6,N,1.5
1504037015.5,286047002.3,N,1.5
1504037035.3,286047002.0,N,1.5
1504037055.2,286047001.5,N,1.4
1504037075.9,286047002.7,N,1.4
1504037095.7,286047000.6,N,1.4
1504037115.6,286047000.3,N,1.4
1504037135.4,286046999.7,N,1.4
1504037155.2,286047002.1,N,1.4
1504037175.1,286047002.7,N,1.4
1504037176.0,286047002.7,N,1.4
1504037195.8,286047002.4,N,1.4
1504037215.6,286046999.8,N,1.4
1504037235.5,286047000.2,N,1.4
1504037255.3,286047002.4,N,1.4
1504037275.1,286047000.1,N,1.4
1504037295.9,286047002.2,N,1.4
1504037315.7,286047001.7,N,1.3
1504037335.5,286047002.3,N,1.2
1504037355.4,286047001.5,N,1.2
1504037375.2,286047002.1,N,1.1
1504037395.0,286047002.8,N,1.1
1504037395.9,286047002.8,N,1.1
1504037415.8,286047002.3,N,1.0
1504037435.6,286047002.4,N,1.0
1504037455.4,286047002.2,N,0.9
1504037475.3,286047001.8,N,0.9
1504037495.1,286047001.4,N,0.9
1504037496.0,286047001.4,N,0.9
1504037515.8,286047002.1,N,0.9
1504037535.7,286047001.9,N,0.9
1504037555.5,286047002.0,N,0.9
1504037575.3,286047001.3,N,0.9
1504037595.2,286047001.3,N,0.9
1504037615.9,286047003.9,Y,0.0
1504037635.7,286046999.8,P,1.0
1504037655.6,286047001.9,N,0.9
1504037675.4,286047001.6,N,0.8
1504037695.2,286047002.1,N,0.8
1504037715.1,286047002.8,Y,0.0
1504037716.0,286047002.8,P,0.7
1504037735.8,286047001.0,N,0.8
1504037755.6,286047000.8,N,0.8
1504037775.5,286046998.7,N,1.3
1504037795.3,286042159.8,Y,0.0
1504037815.2,286046997.3,P,1.8
1504037835.9,286046998.0,N,1.6
1504037855.7,286046995.6,N,1.9
1504037875.6,286046997.5,N,1.7
1504037895.4,286046997.1,N,1.6
1504037915.2,286046999.1,N,1.6
1504037935.1,286046996.9,N,1.5
1504037936.0,286046996.9,N,1.4
1504037955.8,286046996.5,N,1.4
1504037975.6,286046997.0,N,1.4
1504037995.5,286046997.4,N,1.3
1504038015.3,286046997.4,N,1.3
1504038035.1,286046997.1,N,1.2
1504038055.9,286046996.8,N,1.2
1504038075.7,286046996.8,N,1.2
1504038095.5,286046997.0,N,1.1
1504038115.4,286046999.3,N,1.2
1504038135.2,286046999.3,N,1.2
1504038155.0,286046999.6,N,1.3
1504038155.9,286046999.6,N,1.3
1504038175.8,286046999.0,N,1.3
1504038195.6,286046999.0,N,1.3
1504038215.4,286046999.0,N,1.3
1504038235.3,286046998.7,N,1.3
1504038255.1,286046999.0,N,1.3
1504038275.8,286046998.8,N,1.2
1504038295.7,286046998.6,N,1.2
1504038315.5,286046999.3,N,1.2
1504038335.3,286046998.8,N,1.2
1504038355.2,286046998.9,N,1.1
1504038375.0,286046999.3,N,1.1
1504038375.9,286046999.3,N,1.1
1504038395.7,286046998.4,N,1.0
1504038415.6,286046998.3,N,1.0
1504038435.4,286046998.4,N,1.0
1504038455.2,286046998.6,N,1.0
1504038475.1,286046999.1,N,1.0
1504038476.0,286046999.1,N,0.9
1504038495.8,286046999.6,N,0.9
1504038515.7,286046999.4,N,0.9
1504038535.5,286046998.4,N,0.8
1504038555.3,286047000.7,N,0.9
1504038575.2,286046998.5,N,0.8
1504038595.9,286046999.3,N,0.7
1504038615.7,286046998.9,N,0.6
1504038635.6,286046998.4,N,0.5
1504038655.4,286046999.5,N,0.5
1504038675.2,286046999.4,N,0.5
1504038695.1,286046999.5,N,0.5
1504038696.0,286046999.5,N,0.5
1504038715.8,286046999.6,N,0.5
1504038735.6,286046999.3,N,0.5
1504038755.5,286046999.5,N,0.5
1504038775.3,286046999.6,N,0.5
1504038795.1,286046997.0,Y,0.0
1504038815.9,286046998.7,P,0.2
1504038835.7,286046998.7,P,0.2
1504038855.5,286047000.9,P,0.9
1504038875.4,286046998.5,N,0.9
1504038895.2,286047000.4,N,0.9
1504038915.0,286047000.0,N,0.9
1504038915.9,286047000.0,N,0.8
1504038935.8,286046999.8,N,0.8
1504038955.6,286047000.2,N,0.8
1504038975.4,286047000.7,N,0.8
1504038995.3,286047001.0,N,0.8
1504039015.1,286047000.8,N,0.9
1504039035.8,286046998.4,N,0.9
1504039055.7,286047000.6,N,0.9
1504039075.5,286046998.2,N,1.0
1504039095.3,286047000.9,N,1.0
1504039115.2,286047000.4,N,1.0
1504039135.0,286047002.8,N,1.1
1504039135.9,286047002.8,N,1.3
1504039155.7,286047000.3,N,1.2
1504039175.6,286047000.4,N,1.2
1504039195.4,286047000.2,N,1.2
1504039215.2,286047002.7,N,1.3
1504039235.1,286047000.0,N,1.2
1504039236.0,286047000.0,N,1.2
1504039255.8,286047002.4,N,1.3
1504039275.7,286047002.8,N,1.3
1504039295.5,286047000.2,N,1.3
1504039315.3,286047002.8,N,1.3
1504039335.2,286046999.9,N,1.3
1504039355.9,286047000.2,N,1.3
1504039375.7,286047000.2,N,1.2
1504039395.6,286047000.0,N,1.2
1504039415.4,286046999.7,N,1.2
1504039435.2,286047002.7,N,1.2
1504039455.1,286047002.7,N,1.3
1504039456.0,286047002.7,N,1.3
1504039475.8,286047000.1,N,1.3
1504039495.6,286047000.3,N,1.3
1504039515.5,286047001.0,N,1.3
1504039535.3,286047002.7,N,1.4
1504039555.1,286047002.8,N,1.4
1504039575.9,286047000.2,N,1.3
1504039595.7,286047001.0,N,1.3
1504039615.6,286047000.3,N,1.2
1504039635.4,286047001.7,N,1.2
1504039655.2,286047002.3,N,1.2
1504039675.1,286047002.4,N,1.2
1504039676.0,286047002.4,N,1.2
1504039695.8,286047002.6,N,1.2
1504039715.6,286047000.4,N,1.2
1504039735.5,286047000.4,N,1.2
1504039755.3,286047001.9,N,1.2
1504039775.1,286047002.6,N,1.2
1504039795.9,286046999.9,N,1.2
1504039815.7,286047000.6,N,1.2
1504039835.5,286046999.7,N,1.2
1504039855.4,286047003.9,Y,0.0
1504039875.2,286047000.4,P,0.4
1504039895.0,286047000.7,N,0.3
1504039895.9,286047000.7,N,0.3
1504039915.8,286047000.7,N,0.3
1504039935.6,286047001.2,Y,0.0
1504039955.4,286046998.1,P,1.3
1504039975.3,286047000.3,N,1.2
1504039995.1,286047000.4,N,1.0
1504040015.8,286047000.2,N,0.9
1504040035.7,286047000.3,N,0.9
1504040055.5,286047000.8,N,0.9
1504040075.4,286047000.1,N,0.8
1504040095.2,286047000.8,N,0.8
1504040115.0,286047000.7,N,0.8
1504040115.9,286047000.7,N,0.7
1504040135.8,286046998.2,N,0.9
1504040155.6,286046999.9,N,0.9
1504040175.4,286046998.5,N,0.9
1504040195.3,286047000.6,N,0.9
1504040215.1,286047000.7,N,0.9
1504040216.0,286047000.7,N,0.9
1504040235.8,286047000.9,N,0.9
1504040255.7,286047000.6,N,0.9
1504040275.5,286046998.6,N,0.9
1504040295.3,286047001.2,N,0.9
1504040315.2,286047000.7,N,0.9
1504040335.0,286047000.5,N,0.9
1504040335.9,286047000.5,N,0.9
1504040355.7,286047001.2,N,0.9
1504040375.6,286047000.4,N,0.9
1504040395.4,286047000.2,N,0.8
